Location: ??????
(41.2842°N, 22.6047°E)
Time: 10:47:03
(UTC+00:00)

Daily predictions for brighter satellites

Satellite Brightness Start Highest point End
(mag) Time Altitude Azimuth Time Altitude Azimuth Time Altitude Azimuth
Ariane Rocket 3.4 18:18:30 10° SE 18:23:22 49° ENE 18:28:15 10° N
Cosmos 1408 2.5 18:22:07 10° S 18:25:45 73° E 18:29:22 10° NNE
MOS 1 4.5 18:20:16 10° SSE 18:25:49 60° ENE 18:31:23 10° N
H-2A R/B 3.5 18:19:29 10° WSW 18:27:34 20° SSW 18:30:38 10° SSE
Cosmos 1818 3.8 18:22:53 10° SW 18:28:19 82° WNW 18:33:50 10° NNE
BREEZE M DEB (TANK) 4.1 18:31:56 10° SE 18:33:48 14° ESE 18:37:03 10° E
OAO 2 Rocket 3.9 18:29:15 10° WSW 18:33:57 41° S 18:38:36 10° ESE
Cosmos 1697 Rocket 3.6 18:30:25 10° N 18:35:37 35° ENE 18:40:46 10° ESE
Cosmos 1437 3.6 18:38:17 10° NNE 18:40:40 25° ENE 18:42:38 13° SE
Cosmos 2082 Rocket 3.1 18:36:29 10° SSE 18:41:08 27° ESE 18:45:48 10° NE
Cosmos 1633 4.3 18:39:08 11° ESE 18:41:10 16° E 18:43:22 10° NE
Helios 1A Rocket 3.7 18:39:03 10° S 18:42:58 52° W 18:46:57 10° NNW
Cosmos 1833 Rocket 2.7 18:39:48 10° S 18:45:21 63° ESE 18:50:56 10° NNE
ISS -0.9 18:45:24 10° NW 18:47:18 14° N 18:49:13 10° NE
ERS-2 2.0 18:43:49 10° NNE 18:47:28 75° ESE 18:51:06 10° S
Cosmos 2279 Rocket 4.1 18:41:47 10° N 18:47:53 58° E 18:53:58 10° SSE
NOSS 3-4 (A) 3.5 18:42:24 10° SW 18:48:12 82° NW 18:54:23 10° NNE
NOSS 3-4 (C) 3.4 18:42:31 10° SW 18:48:18 83° NW 18:54:29 10° NE
Cosmos 2221 3.3 18:44:38 10° N 18:48:33 34° ENE 18:51:55 13° SE
SPOT 3 Rocket 4.0 18:46:12 10° SE 18:51:09 48° ENE 18:56:10 10° N
Terra 4.0 18:51:44 10° ENE 18:53:07 11° ENE 18:54:31 10° NE
USA 307 3.1 18:49:26 10° NW 18:53:40 65° SW 18:57:12 14° SE
ATLAS 2AS CENTAUR R/B 3.0 18:49:14 10° SSW 18:57:01 66° ESE 19:04:43 10° NE
Cosmos 773 Rocket 4.4 18:52:10 10° S 18:57:04 43° ESE 19:01:58 10° NNE
NOSS 3-2 (C) 4.4 18:52:36 10° NW 19:00:19 68° WSW 19:08:55 10° SSE
Cosmos 1242 Rocket 2.4 18:57:11 10° N 19:00:49 78° E 19:03:57 13° SSE
Cosmos 1125 Rocket 4.0 18:56:01 10° NNW 19:01:16 62° WSW 19:06:29 10° S
Cosmos 1953 Rocket 4.2 18:59:49 10° SSW 19:04:14 59° W 19:08:41 10° N
IGS 5A 3.4 19:01:59 11° SSE 19:05:55 83° E 19:10:06 10° N
COSMOS 2406 3.2 19:01:21 10° SSW 19:07:00 86° ESE 19:12:44 10° NNE
Resurs 1-3 4.4 19:05:16 10° S 19:09:31 50° W 19:13:48 10° NNW
Cosmos 2369 4.2 19:04:15 10° NNW 19:09:42 46° ENE 19:13:36 18° SE
USA 308 3.6 19:06:23 10° WNW 19:10:27 46° SW 19:13:23 17° SSE
USA 305 3.7 19:06:30 10° WNW 19:10:28 41° SW 19:13:23 16° SSE
Hubble Space Telescope 2.8 19:08:59 10° SSW 19:10:40 12° S 19:10:40 12° S
IRIS 4.1 19:09:10 10° W 19:11:52 78° S 19:14:29 19° ESE
Cosmos 1606 3.1 19:10:44 10° N 19:14:20 42° ENE 19:16:16 23° SE
Nadezhda 4 Rocket 4.2 19:09:52 10° SSE 19:15:41 51° E 19:21:40 10° NNE
USA 267 3.6 19:11:48 10° ENE 19:17:55 41° SE 19:24:00 10° SSW
Landsat 7 3.8 19:13:39 13° SSE 19:17:56 86° WSW 19:22:43 10° NNW
ATLAS 3B R/B 3.8 19:11:46 10° NNW 19:18:15 37° NE 19:23:48 15° ESE
CENTAUR R/B 4.1 19:12:11 10° NW 19:20:07 47° WSW 19:28:28 10° S
ERBS 3.8 19:17:41 10° NNW 19:20:27 25° NE 19:22:06 17° E
Cosmos 1656 4.3 19:15:10 10° NNW 19:20:39 52° WSW 19:25:45 11° S
Cosmos 1980 Rocket 2.8 19:16:20 10° N 19:21:40 42° ENE 19:25:02 21° ESE
Cosmos 2151 3.9 19:21:09 23° SE 19:22:36 29° E 19:26:17 10° NNE
ERS-1 Rocket 4.0 19:20:53 20° ESE 19:23:30 31° ENE 19:27:54 10° N
Spot 2 Rocket 4.0 19:20:49 21° SE 19:23:53 46° ENE 19:28:45 10° N
GP-B 4.3 19:22:40 10° NNE 19:26:25 26° E 19:27:39 23° ESE
Cosmos 1842 Rocket 3.5 19:23:00 10° N 19:27:30 88° E 19:30:37 20° S
Cosmos 2322 Rocket 4.4 19:25:54 10° NNE 19:28:11 12° NE 19:30:29 10° ENE
BREEZE-M R/B 4.1 19:24:11 10° SSW 19:29:32 23° SSE 19:29:32 23° SSE
Cosmos 2058 3.8 19:26:41 10° SSW 19:30:43 50° W 19:34:50 10° N
USA 306 4.4 19:30:48 10° WNW 19:34:23 26° SW 19:36:35 17° S
Cosmos 1538 Rocket 4.2 19:32:44 19° S 19:36:15 48° ESE 19:41:14 10° NNE
Cosmos 1825 4.5 19:34:49 10° SW 19:37:55 24° WNW 19:41:01 10° NNW
Cosmos 1076 Rocket 3.4 19:35:56 18° S 19:39:04 83° E 19:43:26 10° N
Cosmos 2098 Rocket 2.0 19:41:30 41° S 19:42:24 86° W 19:45:31 10° N
Resurs 01 Rocket 2.8 19:38:34 11° SSW 19:42:28 39° W 19:46:40 10° NNW
Meteor 2-8 Rocket 4.4 19:39:56 10° N 19:46:07 80° E 19:49:56 25° SSE
MetOp-B 4.5 19:43:19 18° S 19:47:19 63° WSW 19:52:39 10° NNW
Cosmos 2360 4.3 19:41:54 10° NNW 19:47:35 72° WSW 19:50:53 26° S
SPOT 1/Viking Rocket 3.8 19:45:55 21° S 19:49:24 68° WSW 19:54:36 10° NNW
SL-16 R/B 3.8 19:49:09 10° N 19:53:39 23° NE 19:56:17 17° E
USA 245 4.3 19:54:07 22° S 19:57:49 68° WSW 20:02:45 10° NNW
RESURS DK-1 2.7 19:56:08 10° SW 20:00:15 65° WNW 20:04:25 10° NNE
Cosmos 44 Rocket 4.5 19:57:12 10° SW 20:02:11 47° NW 20:07:16 10° NNE
BREEZE-M DEB (TANK) 3.1 20:00:25 10° NW 20:03:46 64° NNE 20:09:03 21° ESE
GENESIS II 4.4 20:02:21 10° NW 20:06:11 59° WSW 20:06:52 49° SSW
Cosmos 1271 Rocket 3.3 20:03:32 10° N 20:07:21 43° ENE 20:07:34 42° E
SPOT 5 2.5 20:07:14 49° SSE 20:08:22 81° ENE 20:12:42 10° N
ARIANE 5 R/B 2.7 20:08:21 41° S 20:09:54 76° WSW 20:14:24 10° NNW
Meteor 1-26 Rocket 4.4 20:07:01 10° N 20:12:58 62° ENE 20:14:58 40° SE
Cosmos 304 Rocket 4.3 20:08:51 10° N 20:13:28 44° ENE 20:14:26 39° E
Cosmos 1633 4.4 20:13:08 14° SW 20:15:38 28° WNW 20:18:48 10° NNW
Cosmos 1933 3.2 20:13:14 10° N 20:17:20 84° E 20:17:46 69° SSE
OAO 2 Rocket 4.3 20:13:55 10° WSW 20:17:44 28° SSW 20:17:44 28° SSW
Meteor 2-15 4.5 20:12:34 10° NNW 20:18:37 74° W 20:21:33 32° S
Cosmos 1697 Rocket 3.9 20:14:28 10° NW 20:19:30 34° WSW 20:22:30 20° SSW
Cosmos 2195 Rocket 4.4 20:18:36 28° S 20:22:02 86° W 20:28:12 10° N
Cosmos 923 Rocket 4.1 20:22:07 49° SE 20:23:01 55° ESE 20:28:14 10° NNE
CARTOSAT-1 4.5 20:23:15 31° SW 20:24:43 41° W 20:28:49 10° NNW
Cosmos 2082 Rocket 3.4 20:19:39 10° SW 20:24:57 42° WNW 20:30:20 10° NNE
ISS -1.8 20:22:14 10° NW 20:25:02 23° NNE 20:25:51 21° NE
Cosmos 2278 3.7 20:21:20 10° NNW 20:26:59 73° WSW 20:28:45 45° S
Cosmos 371 Rocket 3.4 20:24:43 10° NNW 20:29:30 69° WSW 20:30:30 53° SSW
Terra 1.7 20:29:10 57° S 20:30:08 86° WSW 20:34:56 10° NNW
Cosmos 1092 Rocket 4.3 20:30:54 24° SSW 20:34:45 65° W 20:41:02 10° N
BREEZE-M DEB (TANK) 4.4 20:31:59 10° W 20:36:18 63° NNW 20:53:52 10° ENE
Cosmos 2360 Rocket 3.6 20:39:41 10° N 20:44:22 26° NE 20:46:03 23° E
Cosmos 1809 Rocket 4.3 20:44:40 49° S 20:46:29 82° E 20:52:39 10° N
Cosmos 1862 4.2 20:49:37 39° NE 20:49:37 39° NE 20:52:27 10° NNE
Cosmos 1766 Rocket 3.5 20:50:21 81° WSW 20:50:26 82° W 20:54:52 10° N
Meteor 2-3 Rocket 4.4 20:47:27 24° SW 20:50:33 49° WNW 20:56:06 10° N
Cosmos 2026 Rocket 4.5 20:51:04 28° SSW 20:54:27 57° W 21:00:40 10° N
Cosmos 2112 Rocket 3.9 20:57:39 72° SE 20:57:53 73° ESE 21:03:10 10° NNE
Cosmos 1680 Rocket 3.4 20:59:26 71° SSW 21:00:03 89° ESE 21:05:22 10° NNE
Cosmos 1812 3.5 20:56:13 10° N 20:59:11 49° NNE 20:59:11 49° NNE
USA 267 3.7 20:54:38 10° NE 21:01:03 60° NW 21:07:27 10° WSW
Cosmos 1782 3.5 20:57:17 10° NNW 21:00:54 48° WNW 21:00:54 48° WNW
ERS-1 Rocket 4.3 21:00:53 27° SW 21:02:13 30° W 21:06:39 10° NW
Cosmos 332 Rocket 4.2 20:59:57 10° NNW 21:04:42 53° WSW 21:04:54 53° WSW
Cosmos 1980 Rocket 3.6 21:00:45 10° NW 21:05:25 27° WSW 21:06:48 25° SW
Cosmos 1328 Rocket 3.7 21:01:43 10° N 21:05:51 74° NW 21:05:51 74° NW
ATLAS 3B R/B 3.1 21:02:17 10° NW 21:09:15 56° WSW 21:11:03 45° SSW
Meteor 2-21 Rocket 4.3 21:11:32 64° S 21:12:35 84° E 21:18:49 10° N
Cosmos 2322 Rocket 2.1 21:07:40 10° NNW 21:13:18 71° ENE 21:13:47 67° ESE
Cosmos 1151 Rocket 3.9 21:13:26 10° NNW 21:17:20 43° W 21:17:20 43° W
Meteor 2-6 Rocket 4.0 21:16:05 10° NNW 21:21:32 78° W 21:21:47 76° SW
Cosmos 2237 4.1 21:26:30 10° NNW 21:32:14 77° ENE 21:32:28 75° E
Meteor 1-27 Rocket 3.9 21:27:14 10° N 21:32:47 60° ENE 21:32:53 60° E
USA 234 3.2 21:31:41 53° ESE 21:33:24 80° NE 21:39:58 10° NW
Cosmos 1553 Rocket 4.4 21:27:57 10° NNW 21:33:47 51° W 21:34:51 46° WSW
Cosmos 1655 Rocket 4.0 21:33:14 64° SSW 21:34:16 80° W 21:40:41 10° N
COSMOS 2428 4.5 21:30:05 10° N 21:34:30 22° NE 21:36:25 19° E
Cosmos 1500 Rocket 4.3 21:37:07 50° NNE 21:37:07 50° NNE 21:40:26 10° N
SL-16 R/B 2.4 21:32:34 10° NNW 21:38:06 56° WSW 21:38:07 56° WSW
Cosmos 2266 Rocket 3.8 21:39:17 71° SW 21:39:57 81° W 21:46:09 10° N
Cosmos 1624 Rocket 4.0 21:36:10 10° NNW 21:41:01 77° NW 21:41:01 77° NW
Cosmos 2219 Rocket 3.5 21:36:48 10° N 21:41:39 29° NE 21:42:49 27° ENE
Cosmos 292 Rocket 4.3 21:40:28 10° NNW 21:44:32 54° NNE 21:44:32 54° NNE
Spot 4 4.1 21:45:55 65° NW 21:45:55 65° NW 21:50:07 10° NNW
Meteor 1-10 Rocket 4.4 21:43:39 10° NNW 21:49:07 60° W 21:49:09 60° W
COSMOS 2455 3.4 21:52:02 44° E 21:52:02 44° E 21:56:49 10° NE
Cosmos 2228 Rocket 3.9 21:49:25 10° N 21:52:40 47° NNE 21:52:40 47° NNE
Cosmos 1743 Rocket 4.4 21:54:56 50° NNW 21:54:56 50° NNW 21:58:27 10° N
Cosmos 1420 Rocket 4.1 21:51:22 10° NNW 21:56:17 76° N 21:56:17 76° N
Cosmos 883 Rocket 4.4 21:52:48 10° N 21:59:01 77° W 21:59:25 74° SW
ISS -0.5 21:58:45 10° WNW 21:58:48 10° WNW 21:58:48 10° WNW
Meteor 1-20 Rocket 4.3 22:05:26 65° ENE 22:05:26 65° ENE 22:10:32 10° NNE
Cosmos 972 Rocket 4.1 22:07:27 77° NNE 22:07:27 77° NNE 22:12:16 10° NNE
Cosmos 1452 Rocket 3.9 22:06:00 10° NNW 22:10:51 58° NE 22:10:51 58° NE
Sich 1 4.1 22:17:56 44° N 22:17:56 44° N 22:20:59 10° N
NOSS 3-1 (C) 4.3 22:11:08 10° NNW 22:18:43 67° NE 22:21:57 41° ESE
Cosmos 2333 Rocket 2.2 22:16:11 10° NNW 22:21:43 71° NE 22:21:43 71° NE
Nadezhda 2 Rocket 4.3 22:21:59 84° SSE 22:22:13 87° E 22:28:37 10° N
ATLAS 5 CENTAUR R/B 4.0 22:18:15 10° NNW 22:23:00 28° NE 22:27:15 14° E
Geosat 4.4 22:25:11 56° NE 22:25:11 56° NE 22:29:57 10° NNW
ALOS 2 3.9 22:26:42 35° NW 22:26:42 35° NW 22:29:34 10° NNW
Meteor 1-25 Rocket 4.2 22:27:54 79° NNW 22:27:54 79° NNW 22:33:14 10° N
Cosmos 2360 Rocket 2.8 22:23:13 10° NW 22:27:47 44° W 22:27:47 44° W
Cosmos 2322 3.7 22:31:36 10° NNW 22:36:59 79° NNW 22:36:59 79° NNW
Resurs 1-4 Rocket 4.4 22:36:03 10° ENE 22:38:00 12° E 22:38:04 12° E
Lacrosse 5 4.3 22:42:01 12° E 22:42:01 12° E 22:42:37 10° E
Cosmos 1244 Rocket 4.4 22:42:07 71° W 22:42:19 71° W 22:48:29 10° N
Meteor 1-19 Rocket 4.2 22:36:58 10° N 22:42:20 79° N 22:42:20 79° N
Meteor 1-14 Rocket 4.5 22:43:44 58° ENE 22:43:44 58° ENE 22:48:46 10° NNE
Cosmos 1110 Rocket 4.4 22:38:17 10° NNW 22:43:20 58° NE 22:43:20 58° NE
Cosmos 2297 Rocket 3.4 22:49:53 30° E 22:49:53 30° E 22:54:06 10° NE
NOSS 3-1 (A) 4.3 22:42:50 10° NNW 22:50:25 66° NE 22:54:38 33° ESE
Cosmos 1331 Rocket 4.3 22:48:42 10° NNW 22:53:34 63° NE 22:53:34 63° NE
Cosmos 2237 Rocket 3.5 22:50:30 10° N 22:55:38 34° ENE 22:57:31 27° E
Cosmos 2322 Rocket 4.3 22:53:29 10° WNW 22:55:35 15° W 22:55:35 15° W
Cosmos 2285 Rocket 4.1 22:52:55 10° NNW 22:58:54 60° W 22:58:54 60° W
Cosmos 2227 Rocket 3.5 23:00:28 28° E 23:00:28 28° E 23:04:44 10° NE
Meteor 2-4 Rocket 3.7 23:05:55 10° N 23:11:54 86° E 23:12:00 85° ESE
CZ-2D R/B 3.5 23:11:01 10° NE 23:15:32 27° E 23:15:47 27° E
SL-16 R/B 4.5 23:14:49 10° N 23:18:54 20° NE 23:22:59 10° E
ADEOS II 4.4 23:16:37 10° ENE 23:18:59 13° E 23:20:06 12° ESE
COSMOS 2428 3.0 23:13:35 10° NNW 23:18:23 54° WNW 23:18:23 54° WNW
Cosmos 1269 Rocket 4.2 23:20:05 64° ENE 23:20:05 64° ENE 23:24:51 10° NNE
Meteor 1-5 Rocket 4.1 23:25:24 77° WNW 23:25:24 77° WNW 23:31:10 10° N
Cosmos 2219 Rocket 3.1 23:20:29 10° NW 23:24:30 36° WNW 23:24:30 36° WNW
Meteor 2-17 Rocket 4.2 23:27:19 77° WSW 23:27:38 80° W 23:33:43 10° N
Aureole 2 Rocket 3.9 23:27:07 73° SSE 23:27:45 80° ESE 23:37:05 10° NNE
COSMOS 2455 4.2 23:35:08 25° W 23:37:11 31° NW 23:42:29 10° NNE
Cosmos 1709 Rocket 3.8 23:38:52 72° SSW 23:39:34 86° W 23:45:57 10° N
NOSS 0 Rocket 3.8 23:36:24 10° NNW 23:42:37 71° WSW 23:42:50 70° SW
Cosmos 1302 Rocket 3.9 23:37:54 10° NNW 23:42:56 83° N 23:42:56 83° N
Cosmos 1743 4.3 23:44:29 30° ENE 23:44:29 30° ENE 23:47:06 10° NNE
Cosmos 1340 Rocket 4.1 23:45:19 37° NNW 23:45:19 37° NNW 23:47:53 10° N
Cosmos 1933 Rocket 4.4 23:47:27 44° NW 23:47:27 44° NW 23:50:58 10° N
Timation 2 Rocket 4.1 23:46:19 53° SE 23:46:52 55° ESE 23:52:45 10° NNE
Cosmos 2219 3.1 23:46:58 76° SSE 23:47:15 79° ESE 23:53:02 10° NNE
Cosmos 1745 Rocket 4.5 23:46:52 42° W 23:47:30 44° WNW 23:53:27 10° N
Helios 1A 3.6 23:50:54 55° NNW 23:50:54 55° NNW 23:54:15 10° NNW
Cosmos 1066 Rocket 4.3 23:47:20 10° N 23:53:13 77° E 23:54:13 61° SE
Okean 3 4.0 23:49:54 10° N 23:53:41 57° NE 23:53:41 57° NE
Okean 1-7 3.8 23:50:31 10° NNW 23:53:38 46° NNW 23:53:38 46° NNW
